Location: Belvedere Heights
(33.9836°N, 117.3109°W)
Time: 18:17:20
(UTC+00:00)

Meteor 1-14 Rocket - Pass Details

Date: 11 December 2023
Orbit: 834 x 918 km, 81.3° (Epoch: 29 February)

Event Time Altitude Azimuth Distance (km) Brightness Sun altitude
Rises 01:43:56 0° 1° (N) 3,388 7.1 -12.9°
Reaches altitude 10° 01:46:31 10° 9° (N) 2,455 6.3 -13.4°
Maximum altitude 01:51:40 39° 77° (ENE) 1,254 4.6 -14.5°
Drops below altitude 10° 01:56:52 10° 145° (SE) 2,477 6.5 -15.5°
Sets 01:59:28 0° 153° (SSE) 3,422 7.3 -16.0°
